East Haven, CT

12:42 AM EST on February 28, 2017 (GMT -0500)
Tweed-New Haven

Weather History for KHVN - December, 2012

Change the Weather History Date:

Friday, December 28, 2012

  Actual Average Record
Temperature  
Mean Temperature 34 °F -  
Max Temperature 39 °F 38 °F 57 °F (2008)
Min Temperature 30 °F 26 °F 8 °F (1969)
Degree Days  
Heating Degree Days 30    
Moisture  
Dew Point 21 °F    
Average Humidity 59    
Maximum Humidity 69    
Minimum Humidity 49    
Precipitation  
Precipitation 0.00 in - - ()
Sea Level Pressure  
Sea Level Pressure 29.97 in    
Wind  
Wind Speed 10 mph (NW)    
Max Wind Speed 17 mph    
Max Gust Speed 30 mph    
Visibility 10 miles    
Events      
Averages and records for this station are not official NWS values.
T = Trace of Precipitation, MM = Missing Value Source: NWS Daily Summary

Daily Weather History Graph

Daily Weather History Graph

Search for Another Location

Airport or City:

Trip Planner

Search our weather history database for the weather conditions in past years. The results will help you decide how hot, cold, wet, or windy it might be!

Date:

Astronomy

Dec. 28, 2012 Rise Set
Actual Time 7:16 AM EST 4:30 PM EST
Civil Twilight 6:45 AM EST 5:01 PM EST
Nautical Twilight 6:10 AM EST 5:36 PM EST
Astronomical Twilight 5:37 AM EST 6:09 PM EST
Moon 5:04 PM EST 7:08 AM EST
Length of Visible Light 10h 16m
Length of Day
9h 13m
Full, 100% of the Moon is Illuminated
Dec 28
Full
Jan 4
Last Quarter
Jan 11
New
Jan 18
First Quarter
Jan 26
Full

Hourly Weather History & Observations

Time (EST) Temp. Windchill Dew Point Humidity Pressure Visibility Wind Dir Wind Speed Gust Speed Precip Events Conditions
12:53 AM 33.1 °F 26.1 °F 21.9 °F 64% 29.78 in 10.0 mi NW 8.1 mph 18.4 mph N/A   Mostly Cloudy
1:22 AM 32.0 °F 23.0 °F 21.2 °F 64% 29.79 in 10.0 mi NW 11.5 mph 20.7 mph N/A   Scattered Clouds
1:53 AM 32.0 °F 23.6 °F 19.0 °F 59% 29.81 in 10.0 mi NW 10.4 mph 18.4 mph N/A   Clear
2:53 AM 30.9 °F 21.7 °F 18.0 °F 59% 29.84 in 10.0 mi NW 11.5 mph 21.9 mph N/A   Partly Cloudy
3:53 AM 30.9 °F 19.4 °F 17.1 °F 57% 29.88 in 10.0 mi NW 17.3 mph 29.9 mph N/A   Mostly Cloudy
4:53 AM 30.9 °F 22.8 °F 18.0 °F 59% 29.90 in 10.0 mi NNW 9.2 mph 20.7 mph N/A   Overcast
5:53 AM 30.0 °F 21.1 °F 18.0 °F 61% 29.92 in 10.0 mi NNW 10.4 mph 17.3 mph N/A   Scattered Clouds
6:53 AM 30.9 °F 23.5 °F 19.0 °F 61% 29.96 in 10.0 mi NW 8.1 mph - N/A   Mostly Cloudy
7:53 AM 32.0 °F 21.2 °F 19.9 °F 61% 29.97 in 10.0 mi NNW 16.1 mph 24.2 mph N/A   Mostly Cloudy
8:53 AM 33.1 °F 24.4 °F 19.9 °F 59% 29.99 in 10.0 mi NNW 11.5 mph 17.3 mph N/A   Mostly Cloudy
9:53 AM 36.0 °F 27.1 °F 21.0 °F 55% 30.01 in 10.0 mi North 13.8 mph - N/A   Mostly Cloudy
10:53 AM 37.0 °F 31.0 °F 21.0 °F 52% 30.00 in 10.0 mi NNW 8.1 mph 18.4 mph N/A   Scattered Clouds
11:53 AM 37.9 °F 30.9 °F 21.0 °F 51% 29.98 in 10.0 mi NNW 10.4 mph 18.4 mph N/A   Scattered Clouds
12:53 PM 39.0 °F 32.3 °F 21.9 °F 50% 29.97 in 10.0 mi NW 10.4 mph - N/A   Scattered Clouds
1:53 PM 39.9 °F 32.9 °F 21.9 °F 49% 29.98 in 10.0 mi NNW 11.5 mph 17.3 mph N/A   Scattered Clouds
2:53 PM 39.0 °F 32.3 °F 21.9 °F 50% 29.99 in 10.0 mi NW 10.4 mph - N/A   Scattered Clouds
3:53 PM 39.0 °F 32.8 °F 21.9 °F 50% 30.00 in 10.0 mi NW 9.2 mph - N/A   Clear
4:53 PM 37.0 °F 30.4 °F 21.9 °F 54% 30.02 in 10.0 mi NNW 9.2 mph - N/A   Clear
5:53 PM 36.0 °F 29.6 °F 21.9 °F 57% 30.05 in 10.0 mi NW 8.1 mph - N/A   Clear
6:53 PM 34.0 °F 27.2 °F 21.9 °F 61% 30.05 in 10.0 mi NNW 8.1 mph - N/A   Clear
7:53 PM 32.0 °F 27.5 °F 21.9 °F 66% 30.05 in 10.0 mi NNW 4.6 mph - N/A   Clear
8:53 PM 30.0 °F - 21.0 °F 69% 30.04 in 10.0 mi Calm Calm - N/A   Clear
9:53 PM 33.1 °F 30.0 °F 23.0 °F 66% 30.06 in 10.0 mi West 3.5 mph - N/A   Clear
10:53 PM 33.8 °F 29.6 °F 23.0 °F 65% 30.06 in 10.0 mi West 4.6 mph - N/A   Clear
11:53 PM 32.0 °F 28.7 °F 23.0 °F 69% 30.04 in 10.0 mi West 3.5 mph - N/A   Clear